Regional Weather Roundup
Issued by NWS Boston, MA

Home | Current Version | Previous Version | Text Only | Print | Product List | Glossary On
Versions: 1 2 3 4 5 6 7 8 9 10 11 12 13 14 15 16 17 18 19 20 21 22 23 24 25 26 27 28
000
ASUS41 KBOX 230710
RWRBOX

REGIONAL WEATHER ROUNDUP
NATIONAL WEATHER SERVICE TAUNTON MA
300 AM EDT SUN JUL 23 2017

NOTE:  "FAIR" INDICATES FEW OR NO CLOUDS BELOW 12,000 FEET WITH NO
SIGNIFICANT WEATHER AND/OR OBSTRUCTIONS TO VISIBILITY.

MAZALL-230800-
EASTERN MASSACHUSETTS

CITY           SKY/WX    TMP DP  RH WIND       PRES   REMARKS
BOSTON         CLOUDY    76  65  68 N10       29.75F
BEVERLY        CLOUDY    72  65  78 N7        29.75F
LAWRENCE       CLOUDY    75  61  61 NE15G23   29.78F
BEDFORD        CLOUDY    70  64  81 CALM      29.75F
BLUE HILL        N/A     72  64  76 N9        29.76F
NORWOOD        CLOUDY    70  68  93 CALM      29.74F
MARSHFIELD     CLOUDY    72  66  83 CALM      29.73F
PLYMOUTH       CLOUDY    69  65  86 W3        29.75F
TAUNTON        CLOUDY    68  65  90 CALM      29.74F
NEW BEDFORD    CLOUDY    69  66  90 CALM      29.73F
$$

MAZALL-230800-
CAPE COD AND THE ISLANDS

CITY           SKY/WX    TMP DP  RH WIND       PRES   REMARKS
FALMOUTH       CLOUDY    70  68  94 NW5       29.74F
HYANNIS        CLOUDY    71  68  90 CALM      29.72F
CHATHAM        CLOUDY    72  69  90 CALM      29.74F
PROVINCETOWN   CLOUDY    70  66  87 CALM      29.74F
NANTUCKET      CLOUDY    66  65  96 E3        29.73F
MARTHAS VNYRD  CLOUDY    71  68  90 N8        29.72F
$$

MAZALL-230800-
CENTRAL AND WESTERN MASSACHUSETTS

CITY           SKY/WX    TMP DP  RH WIND       PRES   REMARKS
WORCESTER      CLOUDY    71  57  61 N8        29.79F
FITCHBURG      PTCLDY    70  62  76 NW3       29.78F
ORANGE         PTCLDY    64  64 100 CALM      29.79F
SPRINGFIELD    CLOUDY    68  63  82 CALM      29.75F
WESTFIELD      CLOUDY    69  65  86 N5        29.77S
NORTH ADAMS    PTCLDY    60  58  92 CALM      29.80F
PITTSFIELD     CLEAR     61  59  93 CALM      29.80F FOG
$$

RIZALL-230800-
RHODE ISLAND

CITY           SKY/WX    TMP DP  RH WIND       PRES   REMARKS
PROVIDENCE     CLOUDY    74  65  73 NW5       29.75F
NEWPORT          N/A     71  70  96 N5        29.74F
BLOCK ISLAND   LGT RAIN  70  69  97 NE3       29.74S
WESTERLY       CLOUDY    72  66  81 N3        29.73F
$$

CTZALL-230800-
CONNECTICUT

CITY           SKY/WX    TMP DP  RH WIND       PRES   REMARKS
BRADLEY INTL   CLOUDY    70  65  84 N3        29.76F
HARTFORD       CLOUDY    73  67  81 N7        29.74F
BRIDGEPORT     MOCLDY    75  68  78 N5        29.72F
DANBURY        CLOUDY    73  68  84 NE6       29.76F
GROTON         CLOUDY    72  65  78 N5        29.72F
NEW HAVEN      MOCLDY    74  66  76 N7        29.72F
CHESTER        FAIR      72  68  88 N6        29.74F
MERIDEN        CLOUDY    72  67  84 N5        29.74F
WILLIMANTIC    CLOUDY    72  70  93 CALM      29.75F
OXFORD         CLOUDY    72  63  73 NE7       29.76F
$$

MEZ002-015-021-024-NHZ003-005-008-011-012-014-VTZ005-008-230800-
NORTHERN NEW ENGLAND

CITY           SKY/WX    TMP DP  RH WIND       PRES   REMARKS
PORTLAND ME    CLOUDY    69  49  48 NE14      29.82R
BANGOR ME      PTCLDY    57  43  59 N7        29.86S
CONCORD NH     CLOUDY    67  63  87 CALM      29.80S
MANCHESTER NH  CLOUDY    72  61  68 NE8       29.76F
NASHUA NH      PTCLDY    72  65  78 N6        29.78F
PORTSMOUTH NH  CLOUDY    71  54  54 NE12G20   29.78S
JAFFREY NH     PTCLDY    65  64  97 CALM      29.81F
KEENE NH       MOCLDY    64  63  96 CALM      29.80F
BURLINGTON VT  CLEAR     61  57  87 CALM      29.82F
MT. WASHINGTON MOCLDY    46  19  34 NW25        N/A
$$

NYZ052-076-230800-
EASTERN NEW YORK

CITY           SKY/WX    TMP DP  RH WIND       PRES   REMARKS
ALBANY         PTCLDY    65  61  87 N3        29.78F
NEW YORK CITY  CLOUDY    72  70  93 CALM      29.72S
$$

ANZALL-230800-
MARINE OBSERVATIONS

STATION/POSITION TIME  TEMP    WIND        PRES    VSBY  WAVE
                       AIR SEA DIR/SP/G                  HT/PER
                 (UTC) (F)     (DEG/KT/KT) (MB)    (MI)  (FT/S)
BOSTON BUOY      0650   72 69  340/ 10/ 12 1006.8F         1/ 9
BUZZARDS BAY     0600   71      20/  7/  7 1007.4F
NANTUCKET SOUND  0650      68              1006.6F         0
MASS BAY-STELLWA 0604   69 64  330/  4/  4 1006.9F         1/10
ISLE OF SHOALS   0600   72      40/ 14/ 15 1008.3R
S OF BLOCK IS    0655      75                N/A           2/ 6
$$

......................KEY.........................
  SKY/WX - SKY CONDITION/PRESENT WEATHER
  TMP    - TEMPERATURE IN FAHRENHEIT
  DWPT   - DEWPOINT IN FAHRENHEIT
  RH     - RELATIVE HUMIDITY IN PERCENT
  WIND   - DIRECTION AND SPEED IN MPH
  PRES   - MEAN SEA LEVEL PRESSURE IN INCHES OF HG
  WCI    - WIND CHILL INDEX
  VSB    - VISIBILITY IN MILES
  HX     - HEAT INDEX
  TC     - TEMPERATURE IN CELSIUS
  VRB    - VARIABLE WIND DIRECTION
  N/A    - NOT AVAILABLE




USA.gov is the U.S. government's official web portal to all federal, state and local government web resources and services.